LY3PGO-4 Weather Reports


Display with metric or nautical units.
time (UTC)temp
F
wind
direction
speed
MPH
gust
MPH
rain 1hr
in
rain 24hr
in
rain mn
in
humidity
%
barometer
mb
20260906014456 54 292 3.0 9.0 0.00 1.20 0.02 97 1005.5
20260906013448 53 315 4.0 9.0 0.02 1.20 0.02 97 1005.4
20260906012444 53 270 3.0 8.0 0.02 1.20 0.02 97 1005.5
20260906011435 53 292 4.0 9.0 0.02 1.20 0.02 97 1005.4
20260906010429 54 0 5.0 9.0 0.02 1.20 0.02 97 1005.6
20260906005423 54 292 4.0 9.0 0.02 1.20 0.02 97 1005.3
20260906004417 54 247 4.0 8.0 0.02 1.20 0.02 97 1005.5
20260906003414 54 292 4.0 7.0 0.00 1.18 0.00 97 1005.5
20260906002404 55 315 4.0 9.0 0.00 1.18 0.00 97 1005.4
20260906001359 55 315 4.0 11.0 0.00 1.18 0.00 97 1005.3
20260906000351 55 315 4.0 6.0 0.00 1.18 0.00 97 1005.3
20260905235346 55 292 3.0 9.0 0.00 1.18 0.00 97 1005.3
20260905234342 55 270 4.0 9.0 0.00 1.18 0.00 97 1005.4
20260905233334 55 315 4.0 9.0 0.00 1.18 0.00 97 1005.4
20260905232326 55 292 4.0 11.0 0.00 1.18 0.00 97 1005.1
20260905231320 55 270 2.0 9.0 0.00 1.18 0.00 97 1004.9
20260905230315 54 270 4.0 8.0 0.00 1.18 0.00 97 1005.3
20260905225311 55 315 4.0 8.0 0.00 1.19 0.00 97 1005.2
20260905224303 55 292 4.0 8.0 0.00 1.22 0.00 97 1005.2
20260905223255 55 247 5.0 9.0 0.00 1.25 0.00 97 1005.1
20260905222249 55 337 2.0 9.0 0.00 1.28 0.00 97 1005.0
20260905221244 55 337 4.0 9.0 0.00 1.31 0.00 97 1005.1
20260905220241 55 270 3.0 7.0 0.00 1.32 0.00 97 1005.1
20260905215232 55 270 3.0 11.0 0.00 1.36 0.00 97 1005.2
20260905214225 55 270 4.0 11.0 0.00 1.36 0.00 97 1005.2
20260905213218 55 315 5.0 11.0 0.00 1.37 0.00 97 1005.0
20260905212213 55 270 4.0 13.0 0.00 1.38 0.00 97 1005.1
20260905211210 55 270 4.0 11.0 0.01 1.44 0.00 97 1005.3
20260905210200 55 292 4.0 8.0 0.02 1.46 0.00 97 1005.3
20260905205154 56 225 4.0 11.0 0.07 1.51 1.46 97 1005.3
20260905204148 56 337 5.0 9.0 0.20 1.54 1.46 97 1004.9
20260905203142 55 315 3.0 8.0 0.25 1.56 1.46 98 1005.2
20260905202139 55 247 4.0 8.0 0.25 1.58 1.46 98 1005.1
20260905201129 55 337 2.0 7.0 0.24 1.62 1.45 98 1005.1
20260905200123 55 315 2.0 7.0 0.22 1.63 1.44 98 1005.2
20260905195117 56 292 4.0 8.0 0.18 1.61 1.41 98 1005.1
20260905194112 56 225 3.0 11.0 0.05 1.50 1.26 97 1005.4
20260905193107 56 292 4.0 9.0 0.00 1.49 1.22 97 1005.2
20260905192058 56 292 4.0 11.0 0.06 1.52 1.22 97 1005.1
20260905191053 56 270 4.0 13.0 0.22 1.52 1.22 97 1005.0
20260905190046 56 270 4.0 11.0 0.28 1.54 1.22 97 1004.7
20260905185040 56 247 4.0 9.0 0.28 1.56 1.22 97 1004.9
20260905184037 57 292 4.0 9.0 0.28 1.58 1.22 97 1004.8
20260905183027 57 247 4.0 8.0 0.34 1.61 1.22 98 1004.8
20260905182021 57 112 4.0 7.0 0.34 1.57 1.16 98 1004.3
20260905181016 57 270 2.0 6.0 0.20 1.43 0.99 97 1004.6
20260905180009 57 315 2.0 4.0 0.18 1.37 0.93 97 1005.0
20260905175006 57 270 2.0 9.0 0.19 1.38 0.93 96 1004.8
20260905173957 56 270 2.0 9.0 0.20 1.41 0.93 95 1004.7
20260905172949 56 270 4.0 11.0 0.14 1.36 0.87 96 1004.8
20260905171943 57 270 4.0 7.0 0.07 1.30 0.80 97 1005.0
20260905170938 57 270 4.0 11.0 0.06 1.29 0.79 96 1004.6
20260905165935 58 225 4.0 13.0 0.02 1.25 0.76 95 1004.5
20260905164925 58 292 4.0 11.0 0.01 1.24 0.74 95 1004.4
20260905163920 58 292 4.0 11.0 0.00 1.24 0.73 94 1004.3
20260905162913 58 270 5.0 11.0 0.00 1.24 0.73 93 1004.0
20260905161907 59 337 4.0 11.0 0.00 1.24 0.73 91 1004.1
20260905160903 59 337 6.0 14.0 0.01 1.24 0.73 91 1003.7
20260905155855 60 270 4.0 11.0 0.01 1.24 0.73 91 1003.7
20260905154848 60 270 4.0 11.0 0.01 1.24 0.73 90 1003.6
20260905153842 60 0 4.0 11.0 0.01 1.24 0.73 91 1003.7
20260905152835 60 315 3.0 11.0 0.01 1.24 0.73 92 1003.5
20260905151832 59 292 4.0 14.0 0.01 1.25 0.73 93 1003.2
20260905150824 60 270 3.0 8.0 0.00 1.26 0.72 92 1003.2
20260905145816 60 292 5.0 11.0 0.01 1.30 0.72 89 1003.1
20260905144811 62 247 4.0 11.0 0.04 1.30 0.72 89 1003.3
20260905143805 61 270 5.0 11.0 0.04 1.30 0.72 90 1003.3
20260905142801 60 292 6.0 11.0 0.04 1.30 0.72 91 1003.2
20260905141752 60 247 5.0 13.0 0.04 1.30 0.72 94 1003.0
20260905140746 58 247 5.0 14.0 0.05 1.30 0.72 94 1003.1
20260905135739 58 247 7.0 11.0 0.11 1.29 0.71 94 1003.3
20260905134734 58 270 7.0 11.0 0.15 1.26 0.69 94 1003.1
20260905133731 58 292 8.0 15.0 0.15 1.26 0.69 93 1003.1
20260905132722 58 292 4.0 14.0 0.15 1.26 0.69 95 1003.1
20260905131715 58 292 4.0 14.0 0.17 1.26 0.69 95 1002.7
20260905130708 58 247 9.0 17.0 0.15 1.25 0.67 96 1002.7
20260905125703 58 247 9.0 18.0 0.12 1.17 0.60 94 1002.3
20260905124700 60 202 8.0 24.0 0.07 1.11 0.53 92 1002.0
20260905123649 60 270 6.0 11.0 0.07 1.11 0.53 95 1001.7
20260905122643 59 315 3.0 7.0 0.07 1.11 0.53 96 1001.8
20260905121637 58 270 2.0 7.0 0.06 1.10 0.52 95 1001.7
20260905120633 58 180 4.0 9.0 0.06 1.10 0.52 95 1001.7
20260905115628 59 247 3.0 9.0 0.02 1.05 0.47 93 1001.6
20260905114619 60 270 8.0 17.0 0.01 1.04 0.46 90 1001.3
20260905113613 61 337 5.0 16.0 0.01 1.04 0.46 89 1001.7
20260905112607 61 292 4.0 14.0 0.01 1.04 0.46 89 1001.6
20260905111600 61 247 4.0 17.0 0.07 1.04 0.46 89 1001.1
20260905110557 61 247 10.0 23.0 0.07 1.04 0.46 87 1001.2
20260905105548 62 315 9.0 21.0 0.06 1.03 0.45 86 1000.8
20260905104542 63 337 8.0 17.0 0.06 1.03 0.45 86 1000.8
20260905103537 61 292 5.0 15.0 0.06 1.03 0.45 92 1000.7
20260905102530 60 270 7.0 16.0 0.06 1.03 0.45 93 1000.6
20260905101526 61 270 8.0 17.0 0.00 0.97 0.39 89 1000.4
20260905100518 63 315 4.0 13.0 0.00 0.97 0.39 86 1000.1
20260905095511 62 337 7.0 11.0 0.00 0.97 0.39 87 1000.4
20260905094505 63 337 6.0 15.0 0.00 0.97 0.39 89 1000.3
20260905093458 62 270 4.0 11.0 0.00 0.97 0.39 89 1000.2
20260905092456 60 292 4.0 14.0 0.00 0.97 0.39 91 1000.3
20260905091445 59 270 6.0 14.0 0.00 0.97 0.39 91 1000.2
20260905090441 60 270 10.0 18.0 0.00 0.97 0.39 91 1000.0
20260905085434 61 292 4.0 16.0 0.01 0.97 0.39 89 1000.1
20260905084427 61 0 8.0 16.0 0.01 0.97 0.39 91 1000.0
20260905083425 60 247 4.0 14.0 0.01 0.97 0.39 92 999.8
20260905082415 60 225 9.0 16.0 0.01 0.97 0.39 91 999.6
20260905081409 60 270 7.0 17.0 0.01 0.97 0.39 91 999.3
20260905080403 60 270 6.0 18.0 0.05 0.97 0.39 92 999.0
20260905075356 60 315 8.0 14.0 0.05 0.97 0.38 93 998.9
20260905074354 60 270 6.0 14.0 0.05 0.98 0.38 94 998.8
20260905073345 59 225 5.0 15.0 0.05 0.98 0.38 95 998.5
20260905072338 58 247 5.0 21.0 0.05 0.98 0.38 96 998.6
20260905071332 59 247 8.0 18.0 0.05 1.00 0.38 96 998.5
20260905070326 60 315 5.0 18.0 0.01 1.02 0.34 94 998.5
20260905065322 60 247 8.0 13.0 0.00 1.05 0.33 94 998.3
20260905064312 60 0 4.0 11.0 0.00 1.05 0.33 95 998.0
20260905063307 60 270 5.0 11.0 0.00 1.05 0.33 95 997.8
20260905062301 59 270 5.0 11.0 0.00 1.05 0.33 96 997.6
20260905061255 58 315 4.0 9.0 0.00 1.05 0.33 97 997.6
20260905060252 58 292 3.0 11.0 0.00 1.05 0.33 97 997.9
20260905055242 58 270 4.0 11.0 0.00 1.05 0.33 97 997.4
20260905054236 58 292 4.0 9.0 0.00 1.05 0.33 97 997.3
20260905053229 58 247 3.0 8.0 0.01 1.05 0.33 98 997.3
20260905052223 57 315 2.0 7.0 0.02 1.05 0.33 98 996.9
20260905051220 57 337 4.0 7.0 0.04 1.05 0.33 99 997.2
20260905050211 57 292 2.0 7.0 0.05 1.05 0.33 99 997.1
20260905045205 57 270 2.0 6.0 0.05 1.05 0.33 99 997.2
20260905044158 57 292 3.0 6.0 0.05 1.05 0.33 99 997.1
20260905043154 57 315 4.0 9.0 0.04 1.04 0.32 99 997.2
20260905042149 57 337 5.0 9.0 0.02 1.03 0.31 99 996.8
20260905041140 57 292 3.0 6.0 0.01 1.02 0.30 99 996.7
20260905040134 57 292 4.0 6.0 0.00 1.00 0.28 99 996.8
20260905035128 56 225 2.0 4.0 0.00 1.00 0.28 99 996.8
20260905034122 56 292 2.0 4.0 0.00 1.00 0.28 99 997.0
20260905033118 56 270 2.0 7.0 0.00 1.00 0.28 99 996.8
20260905032109 56 270 3.0 4.0 0.00 1.00 0.28 99 997.1
20260905031103 56 0 2.0 4.0 0.00 1.00 0.28 99 997.0
20260905030058 56 292 2.0 6.0 0.00 1.00 0.28 99 997.1
20260905025051 56 270 1.0 6.0 0.00 1.00 0.28 99 996.9
20260905024047 56 270 2.0 8.0 0.00 1.00 0.28 99 997.0
20260905023038 56 292 2.0 7.0 0.00 1.00 0.28 99 997.0
20260905022032 56 292 2.0 4.0 0.00 1.02 0.28 99 997.3
20260905021027 56 315 2.0 4.0 0.00 1.02 0.28 99 997.2
20260905020019 56 270 2.0 7.0 0.00 1.02 0.28 99 996.9
20260905015016 56 247 2.0 6.0 0.00 1.02 0.28 99 996.8